Vorticity
8 7 7 8 8 8 9 9 9 10 10 9 6 3 1 -1 -2 -2 -2 -2 3 9 16 19 18 16 12 7 5 4 6 11 15 14 10 5 4 5 7 10 13 13 10 4 -5 -9 -6 7 19 22 18 13 10 8 5 1 0 2 6 12 20 28 34 39 40 42 45 46 37
9 8 8 8 8 8 8 8 9 9 10 10 10 10 8 5 3 1 -1 -3 -4 -1 5 12 16 17 15 13 12 11 11 12 16 19 19 15 10 8 8 9 9 9 6 3 -1 -6 -9 -6 6 12 13 11 11 13 14 13 8 4 3 4 9 15 21 27 32 37 42 48 50
11 10 9 8 8 7 7 7 8 8 8 9 10 11 11 10 9 7 5 3 -0 -2 -3 -1 5 11 15 16 15 13 12 11 12 14 17 21 19 16 13 12 10 8 6 4 0 -5 -11 -13 -5 4 10 9 5 5 10 15 16 14 12 9 9 10 13 15 15 16 18 20 22
12 12 11 10 9 8 7 7 7 7 7 8 8 9 10 11 11 11 10 9 7 4 1 -2 -2 0 5 11 14 15 14 12 11 9 9 11 16 19 18 17 15 13 11 9 4 -2 -10 -15 -10 -1 8 12 6 1 -0 4 7 11 14 16 15 16 17 17 14 9 4 -0 -3
10 11 12 12 11 10 9 8 7 7 7 7 7 7 8 9 10 10 11 11 10 9 8 7 3 1 -1 0 6 10 13 14 13 11 9 5 7 9 11 13 12 12 13 15 15 9 0 -11 -10 -4 3 8 4 2 1 3 2 2 2 4 8 13 17 21 21 20 15 8 3
7 8 9 11 12 12 12 11 9 8 8 7 6 6 7 7 8 9 9 10 10 10 10 10 9 8 5 1 0 2 6 10 12 13 12 10 7 5 4 4 4 4 6 8 13 18 18 11 5 3 3 4 -2 -4 -2 3 7 7 4 -2 -2 -1 4 10 17 22 25 24 19
6 6 6 7 9 11 12 12 12 12 11 9 8 7 7 7 6 7 8 9 10 10 10 10 11 11 10 9 6 3 1 3 6 9 12 13 11 9 6 4 3 2 2 4 6 11 16 23 26 24 19 10 2 -4 -6 -5 3 9 11 6 2 -1 -2 1 7 14 20 25 24
7 7 6 6 7 8 10 11 12 13 13 12 11 9 8 7 7 7 7 8 8 9 9 10 10 11 11 12 12 10 6 3 2 4 6 10 11 11 10 9 7 5 4 4 5 6 7 9 18 25 29 26 16 7 -0 -4 -1 5 11 14 11 7 4 3 4 9 14 18 18
9 9 8 8 8 8 9 10 11 12 13 13 13 12 11 9 8 8 7 7 7 8 8 9 9 10 10 11 12 13 13 11 7 4 3 3 6 9 10 11 10 9 7 7 7 7 6 5 5 10 17 26 25 20 12 6 3 4 7 11 12 11 10 10 9 9 11 13 13
10 10 10 9 8 8 9 10 10 11 12 14 15 15 14 13 11 10 8 8 8 8 8 8 8 9 9 9 10 12 13 14 13 11 8 4 2 3 5 8 9 9 9 8 8 8 8 7 6 6 8 16 22 23 20 15 11 10 9 9 8 7 8 9 8 9 9 10 9
11 11 10 10 9 8 8 8 9 9 10 12 14 16 16 16 15 13 11 10 9 9 8 9 9 9 9 9 9 10 10 12 13 14 14 12 8 4 2 3 5 6 7 7 6 6 6 7 7 6 6 8 14 18 20 17 14 12 11 12 11 10 8 5 4 4 4 4 4
10 10 10 10 9 9 8 7 7 7 8 9 11 14 15 17 17 17 15 14 11 10 9 9 9 9 9 9 9 9 9 9 11 12 14 15 14 12 8 5 3 4 5 6 6 6 5 5 5 4 3 2 5 8 12 14 13 13 13 14 15 15 15 11 7 3 0 -1 -0
8 8 9 9 9 8 8 7 6 5 5 6 8 10 12 15 17 18 18 17 15 13 11 10 10 10 10 10 10 9 9 9 9 10 11 12 14 14 14 12 9 7 6 7 7 8 7 6 6 5 4 2 1 2 3 5 7 9 11 13 14 16 17 17 14 9 3 -0 -0
7 7 7 7 7 7 7 6 5 5 4 5 5 7 9 12 14 17 19 19 18 17 14 12 11 11 11 11 11 10 10 10 9 10 10 10 11 12 13 14 13 12 10 9 10 10 11 11 11 9 8 6 5 3 2 2 3 4 6 8 10 11 13 13 13 11 7 3 1
5 6 7 7 7 6 6 5 5 5 4 4 5 6 6 8 11 14 17 19 19 19 18 15 13 12 12 11 11 11 11 11 11 10 10 10 10 11 11 12 13 13 12 11 11 12 13 14 15 15 14 13 11 9 7 5 4 4 5 6 7 7 8 9 10 10 8 5 4
4 5 6 7 7 7 6 5 5 4 4 4 5 5 5 6 8 10 14 17 19 19 19 18 16 15 14 13 13 13 13 13 12 12 12 11 11 11 10 10 11 12 12 12 11 11 12 14 15 17 17 17 16 15 13 11 9 7 6 7 6 6 6 8 10 11 11 10 8
3 3 3 4 5 6 6 6 6 5 5 5 5 5 4 4 5 7 10 14 16 17 17 17 17 16 16 15 14 14 14 14 14 14 14 13 13 12 11 11 10 10 10 10 10 10 10 11 12 14 16 17 18 18 17 16 14 12 11 9 9 8 7 5 7 8 9 10 10
4 3 2 2 2 3 4 6 6 6 6 6 5 5 4 4 4 5 7 10 13 14 14 14 14 15 15 14 14 14 14 15 15 15 15 15 15 14 13 12 11 11 10 10 10 9 9 8 9 10 11 14 16 17 18 17 17 17 16 16 16 15 12 8 5 4 3 4 5
5 5 4 2 1 1 2 3 4 5 6 7 7 6 5 5 4 4 5 7 9 11 11 11 11 11 11 12 12 12 13 14 14 15 15 16 16 16 16 15 14 13 12 11 10 10 9 8 7 7 7 8 10 12 14 15 16 16 17 18 20 21 21 19 15 10 7 4 5
6 6 5 5 4 3 2 2 2 3 4 6 6 6 6 6 5 5 5 5 7 8 8 9 9 9 9 9 9 9 9 11 12 13 13 14 16 16 17 17 16 15 14 13 12 11 10 10 9 8 7 7 6 7 8 9 10 11 12 14 16 18 20 22 22 20 18 16 14
7 6 6 6 5 5 5 4 3 3 3 3 4 5 6 7 6 6 6 5 4 5 6 7 7 7 7 7 7 7 7 8 9 10 10 11 13 14 15 16 16 16 16 16 15 14 13 12 11 10 9 8 8 7 7 6 6 6 7 7 8 10 12 15 17 19 20 21 21
12 10 9 8 7 7 6 6 6 5 4 3 3 4 5 5 6 6 6 5 4 4 5 5 6 6 6 6 6 6 6 5 6 7 8 8 9 10 11 13 14 15 16 17 16 16 15 14 13 12 11 11 10 10 9 9 8 7 6 5 4 5 5 7 9 11 13 15 17
16 15 14 14 12 11 9 9 8 8 7 6 5 5 4 5 6 6 6 6 5 5 4 4 5 5 5 5 5 5 5 4 4 5 6 6 7 7 8 9 11 12 13 15 15 16 16 15 15 14 14 13 12 12 12 12 11 10 9 8 6 4 4 3 4 5 7 8 10
11 12 13 14 15 15 14 13 12 11 11 10 9 8 6 6 6 6 6 6 6 6 5 5 6 6 6 5 4 4 4 4 4 4 4 5 5 5 5 6 7 8 9 10 11 13 14 15 15 15 15 15 14 13 13 13 13 13 13 12 11 9 7 5 4 4 4 5 6
4 4 5 7 9 11 12 13 13 13 14 14 14 13 11 8 7 6 6 7 7 7 7 7 7 8 8 7 5 4 3 4 4 4 3 3 4 4 4 4 5 4 4 5 6 8 10 12 13 13 14 14 14 14 14 14 14 14 14 14 14 13 11 9 8 6 5 5 5
-0 0 1 2 2 4 5 7 8 9 10 12 15 16 16 14 12 9 7 6 6 7 7 8 8 9 10 11 8 5 3 3 4 4 3 2 2 2 3 3 3 3 3 3 3 3 4 5 7 9 10 12 12 13 13 13 13 14 14 14 14 15 15 14 12 10 8 7 6
2 2 3 2 2 3 3 3 3 3 4 5 7 11 14 17 17 15 12 8 7 6 6 7 8 9 10 12 12 10 6 2 2 3 4 4 2 1 1 1 2 2 2 2 2 1 1 1 1 3 5 7 9 10 10 10 10 11 12 13 14 15 15 15 14 13 11 10 8
7 6 6 5 6 6 5 4 3 3 3 2 2 3 5 9 13 15 15 14 11 9 6 5 6 7 9 10 12 14 12 7 3 1 1 3 3 2 0 -1 -0 1 2 2 2 2 1 0 -0 -0 0 1 3 5 6 7 7 8 9 10 12 13 14 15 14 14 13 11 10
9 8 8 9 9 9 8 8 8 7 5 4 3 2 2 2 4 7 10 13 14 12 9 7 6 6 7 8 11 14 15 15 9 4 1 0 2 2 1 -1 -2 -2 -1 1 2 2 2 2 1 1 0 -0 -0 0 1 3 4 5 6 7 8 10 11 12 13 14 14 14 13
10 10 10 10 10 10 11 11 9 8 7 6 6 5 5 4 4 4 4 5 8 9 10 11 8 6 6 8 10 13 15 17 16 12 7 1 0 0 0 -0 -2 -3 -3 -2 -1 0 1 1 2 2 2 2 1 0 -1 -2 -1 1 2 4 4 6 7 8 10 12 14 15 16
11 11 11 11 11 12 12 11 10 9 9 8 8 8 7 7 6 5 4 3 3 4 6 8 8 6 6 6 8 11 14 16 18 18 16 10 4 1 -0 -0 -1 -2 -3 -3 -2 -1 -0 0 0 1 1 2 3 3 2 0 -2 -3 -4 -8 -2 2 3 4 6 7 9 11 14
12 12 12 12 12 12 12 12 11 11 10 10 10 9 9 8 6 5 4 4 2 2 3 4 5 6 5 4 5 8 12 15 17 19 20 18 14 8 4 1 -0 -1 -1 -1 -0 0 1 1 1 1 1 1 2 3 4 4 2 -1 -3 -6 -1 -0 -0 0 1 2 3 5 7
13 13 13 13 13 13 13 13 13 13 13 12 11 11 9 8 7 7 7 7 7 6 5 4 4 5 5 4 4 6 9 13 15 17 19 20 19 15 11 6 3 2 1 2 3 3 4 5 5 4 3 2 2 3 4 4 5 4 2 -1 -3 -3 -3 -3 -2 -2 -2 -1 1
14 14 14 14 14 14 14 15 15 16 16 16 15 13 12 10 9 8 7 7 8 9 8 7 7 6 6 6 5 6 7 10 13 15 17 19 19 18 15 10 7 4 4 4 5 6 7 8 8 9 8 8 6 5 5 5 6 6 6 5 4 1 -1 -3 -4 -4 -5 -4 -3
14 14 14 14 14 14 14 15 16 17 17 18 18 17 16 15 13 11 9 8 8 9 9 8 9 9 8 7 7 7 7 9 11 13 15 16 17 17 16 12 8 5 3 3 5 6 7 8 9 10 11 12 11 10 9 8 8 8 9 9 10 9 7 4 1 -2 -5 -6 -5
11 11 12 12 12 12 12 12 13 14 15 16 17 18 19 19 17 16 14 13 12 10 9 8 8 9 9 8 8 8 8 8 9 11 12 14 15 16 15 14 10 7 4 3 3 4 4 5 7 9 11 12 13 13 13 12 12 11 11 11 11 12 12 12 9 6 2 -1 -3
9 9 9 10 10 10 10 10 10 11 11 11 13 14 16 17 18 18 18 18 18 16 13 11 10 10 9 9 8 8 8 7 8 9 11 12 13 14 14 13 12 10 8 5 4 3 2 2 3 5 7 10 12 12 13 13 13 13 13 12 12 12 12 13 13 13 11 9 6
10 10 10 10 10 10 10 10 9 9 9 9 9 10 11 12 13 15 16 17 19 20 19 17 15 13 11 10 11 10 9 7 7 8 9 10 12 13 13 13 11 11 10 10 8 6 4 1 0 1 2 5 8 10 11 12 12 12 12 12 12 11 11 11 12 13 13 14 13
12 13 13 13 13 13 12 12 11 11 10 10 10 9 8 8 9 10 10 12 14 16 18 19 18 16 14 13 13 13 11 8 8 8 9 9 10 11 13 13 12 11 10 11 10 9 7 5 2 -0 -1 1 3 6 8 10 10 10 10 10 10 10 10 10 10 11 12 12 13
14 14 14 15 15 15 15 15 15 14 14 13 13 12 11 10 10 9 9 9 10 11 12 15 16 16 16 15 16 15 14 11 9 9 9 10 10 10 11 13 12 11 10 10 10 10 9 8 6 3 1 -0 1 2 4 7 8 9 9 9 9 9 9 9 9 9 10 10 11
13 14 14 14 15 15 16 16 16 16 16 16 16 15 15 14 13 12 11 10 10 10 10 11 12 12 13 14 15 16 16 14 12 10 10 11 11 11 11 11 12 11 10 9 8 9 9 9 8 6 4 2 2 2 3 4 6 7 8 7 7 8 9 9 9 8 8 9 9
Height
3036 3036 3035 3035 3035 3035 3035 3035 3035 3035 3035 3035 3035 3035 3035 3035 3034 3034 3034 3034 3035 3035 3036 3036 3036 3036 3036 3036 3037 3037 3037 3038 3038 3038 3038 3039 3039 3039 3039 3040 3040 3040 3040 3040 3040 3040 3040 3041 3042 3042 3043 3043 3043 3043 3043 3043 3043 3044 3044 3044 3044 3044 3045 3046 3046 3047 3048 3050 3051
3035 3035 3034 3034 3034 3034 3034 3034 3033 3033 3033 3034 3034 3034 3034 3034 3034 3033 3033 3033 3033 3033 3034 3034 3035 3035 3035 3035 3035 3035 3036 3036 3037 3037 3037 3037 3037 3037 3038 3038 3038 3038 3038 3038 3038 3038 3039 3039 3040 3041 3041 3042 3042 3042 3042 3042 3042 3042 3042 3042 3042 3043 3043 3044 3044 3046 3047 3048 3050
3034 3034 3034 3033 3033 3033 3032 3032 3032 3032 3032 3032 3032 3032 3032 3032 3032 3032 3032 3032 3032 3032 3032 3032 3032 3032 3033 3033 3033 3033 3034 3034 3035 3035 3036 3036 3036 3036 3036 3036 3036 3037 3037 3037 3037 3037 3037 3038 3038 3039 3040 3040 3041 3041 3041 3041 3041 3041 3041 3041 3041 3041 3042 3042 3043 3044 3045 3046 3048
3033 3033 3032 3032 3032 3032 3031 3031 3031 3031 3030 3030 3030 3030 3030 3031 3031 3031 3031 3031 3031 3031 3031 3031 3031 3031 3031 3031 3031 3031 3031 3032 3032 3033 3033 3034 3034 3034 3035 3035 3035 3036 3036 3036 3036 3036 3036 3036 3037 3037 3038 3038 3039 3039 3039 3040 3040 3040 3041 3041 3041 3041 3041 3042 3042 3043 3044 3045 3046
3032 3032 3031 3031 3031 3031 3030 3030 3030 3029 3029 3029 3029 3028 3028 3029 3029 3029 3028 3028 3028 3029 3029 3029 3029 3029 3029 3029 3029 3029 3029 3030 3030 3031 3031 3031 3031 3032 3033 3033 3034 3034 3035 3035 3035 3035 3035 3035 3035 3036 3036 3036 3037 3037 3037 3037 3038 3038 3038 3039 3040 3040 3041 3041 3042 3042 3043 3044 3045
3031 3030 3030 3030 3030 3030 3029 3029 3029 3028 3028 3027 3027 3027 3027 3027 3027 3027 3027 3026 3026 3026 3026 3026 3027 3027 3027 3028 3028 3028 3027 3027 3028 3028 3029 3029 3030 3030 3031 3031 3032 3032 3033 3033 3034 3034 3034 3034 3034 3034 3034 3034 3034 3035 3035 3036 3036 3036 3036 3036 3037 3038 3039 3040 3040 3041 3041 3042 3042
3029 3029 3029 3028 3028 3028 3028 3027 3027 3027 3027 3026 3026 3026 3026 3026 3025 3025 3025 3025 3025 3025 3025 3025 3025 3025 3025 3026 3026 3026 3026 3026 3026 3026 3026 3027 3027 3028 3028 3029 3029 3030 3031 3031 3031 3032 3032 3032 3032 3032 3032 3032 3032 3033 3033 3034 3034 3034 3034 3035 3035 3036 3037 3037 3038 3039 3039 3040 3040
3027 3027 3027 3026 3026 3026 3026 3026 3026 3026 3025 3025 3025 3025 3024 3024 3024 3024 3024 3024 3023 3023 3023 3023 3023 3023 3023 3023 3024 3024 3025 3025 3025 3025 3025 3025 3025 3025 3026 3026 3027 3027 3028 3028 3029 3029 3030 3030 3030 3030 3031 3031 3031 3031 3032 3032 3032 3033 3033 3034 3034 3035 3035 3036 3036 3037 3037 3037 3038
3026 3026 3025 3025 3025 3025 3024 3024 3024 3024 3024 3024 3023 3023 3023 3022 3022 3022 3022 3022 3022 3022 3022 3021 3021 3021 3021 3021 3021 3021 3022 3023 3023 3023 3023 3023 3023 3023 3024 3024 3024 3025 3025 3026 3026 3026 3027 3028 3028 3028 3028 3028 3029 3029 3030 3031 3031 3031 3032 3032 3033 3033 3034 3034 3035 3035 3035 3035 3035
3025 3024 3024 3023 3023 3023 3022 3022 3022 3022 3022 3022 3022 3021 3021 3021 3021 3021 3020 3020 3020 3020 3020 3020 3020 3020 3019 3019 3019 3019 3019 3020 3021 3021 3021 3021 3021 3021 3021 3021 3022 3022 3022 3023 3023 3024 3024 3025 3026 3026 3026 3026 3026 3026 3027 3028 3028 3029 3030 3030 3031 3031 3032 3032 3033 3033 3034 3033 3033
3023 3023 3022 3022 3021 3021 3021 3020 3020 3020 3020 3020 3020 3020 3020 3019 3019 3019 3018 3018 3018 3018 3018 3017 3018 3018 3017 3017 3017 3017 3017 3017 3017 3018 3019 3019 3019 3020 3020 3020 3020 3020 3020 3021 3021 3021 3021 3022 3022 3023 3023 3023 3023 3023 3024 3024 3025 3026 3027 3027 3028 3029 3029 3030 3031 3031 3031 3031 3031
3021 3021 3021 3021 3020 3020 3019 3019 3018 3018 3018 3018 3018 3018 3018 3018 3017 3017 3017 3016 3016 3016 3015 3015 3015 3015 3015 3016 3016 3016 3015 3015 3015 3015 3016 3016 3016 3017 3017 3018 3018 3018 3018 3019 3019 3019 3019 3019 3020 3020 3020 3021 3021 3021 3021 3021 3022 3023 3023 3024 3025 3026 3026 3027 3027 3028 3029 3029 3029
3020 3019 3019 3019 3018 3018 3017 3017 3016 3016 3016 3016 3016 3016 3016 3016 3016 3016 3015 3015 3014 3014 3013 3013 3013 3013 3013 3013 3013 3013 3013 3013 3013 3013 3013 3013 3014 3014 3015 3015 3016 3016 3016 3016 3016 3017 3017 3017 3017 3017 3017 3018 3018 3018 3019 3019 3019 3020 3020 3021 3022 3023 3023 3024 3024 3025 3025 3026 3026
3019 3018 3017 3017 3016 3016 3016 3015 3015 3014 3014 3014 3014 3014 3014 3014 3014 3014 3013 3013 3012 3012 3011 3011 3011 3011 3011 3011 3011 3011 3011 3011 3011 3011 3011 3011 3011 3011 3012 3012 3013 3013 3013 3014 3014 3014 3014 3015 3015 3015 3015 3015 3016 3016 3016 3017 3017 3017 3018 3018 3019 3020 3021 3021 3021 3022 3022 3023 3024
3017 3017 3016 3016 3015 3014 3014 3013 3013 3012 3012 3012 3011 3011 3011 3011 3012 3011 3011 3011 3011 3010 3010 3010 3009 3008 3008 3008 3008 3009 3009 3009 3009 3009 3009 3009 3009 3009 3009 3009 3010 3010 3011 3011 3011 3011 3012 3012 3012 3012 3013 3013 3013 3013 3014 3014 3015 3015 3015 3016 3016 3017 3018 3019 3019 3019 3020 3020 3021
3016 3016 3015 3014 3014 3013 3012 3011 3011 3011 3010 3010 3010 3010 3010 3010 3010 3010 3010 3010 3009 3009 3008 3008 3007 3007 3006 3006 3006 3006 3006 3007 3007 3007 3007 3007 3007 3007 3007 3007 3007 3007 3008 3008 3009 3009 3009 3009 3010 3010 3010 3010 3011 3011 3011 3012 3012 3012 3013 3013 3014 3014 3015 3015 3016 3016 3017 3017 3018
3014 3013 3013 3013 3012 3011 3011 3010 3010 3009 3009 3008 3008 3008 3007 3007 3008 3008 3008 3008 3008 3007 3007 3006 3006 3006 3005 3005 3004 3004 3004 3004 3004 3005 3005 3005 3005 3005 3005 3005 3005 3005 3005 3006 3006 3006 3006 3007 3007 3007 3007 3008 3008 3008 3009 3009 3009 3010 3010 3011 3011 3011 3012 3012 3013 3013 3014 3014 3015
3011 3011 3011 3011 3010 3010 3009 3009 3008 3007 3007 3006 3006 3006 3006 3006 3006 3006 3006 3006 3006 3006 3005 3005 3005 3004 3004 3003 3003 3002 3002 3002 3002 3002 3002 3002 3002 3002 3002 3002 3002 3003 3003 3003 3003 3003 3004 3004 3004 3005 3005 3005 3005 3006 3006 3006 3007 3007 3007 3008 3008 3009 3009 3009 3010 3010 3011 3011 3012
3009 3009 3008 3008 3008 3008 3007 3007 3006 3006 3005 3005 3004 3004 3004 3004 3003 3004 3004 3004 3004 3004 3004 3003 3003 3003 3002 3002 3001 3001 3001 3000 3000 3000 3000 3000 3000 3000 3000 3000 3000 3000 3001 3001 3001 3001 3001 3001 3001 3002 3002 3002 3002 3003 3003 3004 3004 3004 3005 3005 3006 3006 3006 3006 3007 3008 3008 3009 3009
3007 3006 3006 3006 3005 3005 3005 3005 3004 3004 3003 3003 3002 3002 3002 3002 3001 3001 3001 3001 3002 3002 3002 3001 3001 3001 3001 3000 3000 2999 2999 2999 2998 2998 2998 2998 2998 2998 2998 2998 2998 2998 2998 2998 2998 2998 2998 2998 2999 2999 2999 2999 3000 3000 3000 3001 3001 3002 3002 3003 3003 3003 3004 3004 3005 3006 3006 3007 3007
3005 3004 3004 3003 3003 3002 3002 3002 3001 3001 3001 3001 3001 3000 3000 3000 3000 3000 2999 2999 3000 3000 3000 3000 2999 2999 2999 2999 2998 2997 2997 2997 2997 2996 2996 2996 2996 2996 2996 2996 2996 2996 2996 2996 2996 2996 2996 2996 2996 2996 2996 2996 2997 2997 2998 2998 2998 2999 3000 3000 3001 3001 3001 3002 3002 3003 3004 3004 3005
3003 3003 3002 3001 3001 3000 3000 2999 2999 2998 2998 2998 2998 2998 2997 2997 2997 2997 2997 2997 2997 2997 2997 2997 2997 2997 2997 2997 2996 2996 2995 2995 2995 2995 2994 2994 2994 2994 2994 2994 2994 2994 2994 2994 2993 2993 2993 2993 2993 2993 2993 2994 2994 2995 2995 2996 2996 2996 2997 2997 2998 2998 2999 2999 2999 3000 3001 3001 3002
3001 3001 3001 3000 2999 2999 2998 2997 2996 2996 2996 2995 2995 2995 2995 2994 2994 2994 2994 2995 2994 2994 2994 2994 2995 2995 2995 2995 2994 2994 2994 2993 2993 2992 2992 2992 2992 2992 2992 2992 2992 2992 2992 2991 2991 2991 2991 2991 2991 2991 2991 2991 2991 2991 2992 2992 2993 2994 2994 2995 2995 2996 2996 2996 2997 2997 2998 2998 2999
2999 2999 2999 2998 2998 2997 2996 2996 2995 2994 2994 2993 2992 2992 2992 2991 2991 2991 2991 2991 2991 2991 2991 2991 2992 2992 2992 2992 2992 2992 2992 2991 2991 2991 2990 2990 2990 2990 2990 2990 2990 2990 2990 2990 2990 2989 2989 2989 2989 2989 2989 2989 2989 2989 2989 2990 2990 2991 2991 2992 2992 2993 2993 2994 2994 2995 2995 2996 2996
2997 2996 2996 2996 2996 2995 2995 2994 2993 2993 2992 2991 2991 2990 2989 2989 2988 2988 2988 2988 2988 2988 2988 2988 2988 2989 2989 2989 2990 2989 2989 2989 2989 2988 2988 2988 2988 2988 2988 2988 2988 2988 2988 2988 2988 2988 2987 2987 2987 2987 2986 2986 2986 2986 2986 2987 2987 2988 2988 2989 2989 2990 2991 2991 2992 2992 2993 2993 2994
2994 2994 2993 2993 2993 2992 2992 2991 2991 2991 2990 2990 2989 2988 2987 2986 2986 2986 2985 2985 2985 2985 2985 2985 2985 2985 2986 2986 2986 2986 2986 2986 2986 2986 2986 2986 2985 2985 2985 2985 2985 2985 2985 2986 2986 2986 2985 2985 2985 2985 2985 2985 2984 2984 2984 2985 2985 2985 2985 2986 2986 2987 2988 2988 2989 2990 2990 2991 2991
2991 2991 2990 2990 2990 2989 2989 2988 2988 2987 2987 2987 2986 2986 2986 2985 2984 2983 2982 2982 2982 2982 2982 2982 2981 2982 2982 2982 2982 2983 2983 2983 2983 2983 2983 2983 2983 2982 2982 2982 2982 2982 2982 2983 2983 2983 2983 2983 2983 2983 2982 2982 2982 2982 2982 2982 2982 2983 2983 2983 2984 2984 2985 2986 2986 2986 2987 2988 2988
2987 2987 2987 2986 2986 2986 2985 2985 2985 2984 2984 2983 2983 2983 2983 2982 2982 2981 2980 2979 2979 2978 2978 2978 2978 2978 2979 2979 2979 2979 2979 2980 2980 2980 2980 2980 2980 2980 2980 2979 2979 2979 2979 2980 2980 2980 2980 2980 2980 2980 2980 2980 2980 2980 2980 2980 2980 2981 2981 2981 2981 2982 2982 2982 2983 2984 2984 2985 2986
2983 2983 2983 2982 2982 2982 2981 2981 2981 2980 2980 2980 2979 2979 2979 2979 2978 2978 2977 2977 2976 2976 2975 2974 2974 2975 2975 2975 2975 2975 2975 2976 2976 2976 2976 2976 2976 2976 2976 2976 2976 2976 2976 2976 2976 2976 2976 2977 2977 2977 2977 2977 2977 2977 2977 2978 2978 2978 2978 2979 2979 2979 2980 2980 2981 2981 2981 2982 2982
2979 2979 2979 2978 2978 2978 2977 2977 2976 2976 2976 2976 2975 2975 2975 2975 2974 2974 2974 2974 2973 2972 2972 2971 2971 2971 2971 2971 2971 2971 2971 2971 2971 2972 2972 2972 2973 2973 2973 2973 2973 2973 2973 2973 2973 2973 2973 2973 2974 2974 2974 2974 2974 2974 2974 2975 2975 2976 2976 2976 2977 2977 2977 2978 2978 2978 2979 2979 2980
2976 2975 2975 2974 2974 2974 2973 2973 2973 2972 2971 2971 2971 2970 2970 2970 2970 2970 2969 2969 2969 2969 2969 2968 2967 2966 2966 2966 2966 2967 2967 2967 2967 2967 2967 2968 2968 2969 2969 2970 2970 2970 2970 2970 2970 2970 2970 2970 2970 2970 2970 2970 2970 2971 2971 2971 2972 2972 2973 2974 2974 2975 2975 2975 2976 2976 2976 2977 2977
2971 2971 2971 2970 2970 2970 2969 2969 2969 2968 2967 2967 2966 2966 2966 2965 2965 2965 2965 2965 2964 2964 2964 2964 2963 2963 2962 2962 2962 2962 2963 2963 2963 2963 2963 2963 2963 2964 2965 2966 2966 2966 2966 2966 2966 2966 2966 2966 2966 2966 2966 2967 2967 2967 2967 2968 2968 2969 2970 2971 2971 2972 2972 2973 2973 2973 2974 2974 2975
2968 2967 2967 2966 2966 2966 2965 2965 2964 2964 2963 2963 2962 2962 2961 2961 2961 2960 2960 2960 2959 2959 2959 2959 2959 2958 2958 2957 2957 2957 2957 2958 2958 2959 2959 2959 2959 2959 2960 2961 2961 2962 2962 2962 2962 2962 2962 2962 2962 2962 2963 2963 2963 2963 2963 2964 2964 2965 2966 2967 2968 2968 2969 2970 2970 2971 2971 2971 2972
2964 2964 2963 2962 2962 2961 2961 2961 2960 2960 2959 2959 2958 2958 2957 2957 2956 2956 2956 2955 2955 2954 2954 2954 2954 2954 2953 2953 2953 2952 2952 2953 2953 2954 2954 2954 2954 2955 2955 2956 2956 2957 2958 2958 2958 2958 2958 2959 2959 2959 2959 2959 2959 2959 2960 2960 2960 2961 2962 2963 2964 2965 2966 2966 2967 2967 2968 2968 2969
2961 2960 2959 2959 2958 2958 2957 2957 2956 2956 2955 2955 2954 2954 2953 2953 2952 2951 2951 2951 2950 2950 2949 2949 2949 2949 2949 2948 2948 2948 2947 2947 2948 2949 2949 2949 2950 2950 2951 2951 2952 2953 2953 2954 2954 2954 2954 2954 2955 2955 2955 2955 2955 2955 2956 2956 2956 2957 2958 2959 2960 2961 2962 2963 2963 2964 2965 2965 2966
2958 2957 2956 2955 2955 2954 2953 2953 2952 2952 2951 2951 2950 2950 2949 2949 2948 2948 2947 2946 2946 2946 2945 2944 2944 2944 2944 2944 2943 2943 2943 2943 2943 2943 2944 2945 2945 2945 2946 2946 2947 2948 2949 2949 2949 2950 2950 2950 2951 2951 2951 2951 2951 2951 2951 2952 2952 2953 2954 2955 2956 2956 2957 2958 2959 2960 2961 2962 2962
2954 2953 2952 2951 2951 2950 2950 2949 2948 2948 2947 2947 2946 2946 2946 2945 2945 2944 2943 2943 2942 2941 2941 2940 2940 2940 2940 2939 2939 2939 2939 2938 2938 2939 2939 2940 2940 2940 2941 2941 2942 2943 2944 2944 2945 2945 2946 2946 2946 2946 2946 2946 2947 2947 2947 2947 2948 2949 2949 2950 2951 2952 2953 2954 2955 2956 2957 2958 2959
2951 2950 2949 2948 2947 2946 2946 2945 2945 2944 2943 2943 2942 2942 2942 2941 2941 2940 2940 2939 2938 2937 2936 2936 2936 2936 2936 2935 2935 2934 2934 2934 2934 2934 2934 2935 2935 2935 2936 2936 2937 2938 2939 2940 2940 2940 2941 2941 2942 2942 2942 2942 2942 2943 2943 2943 2944 2944 2945 2946 2947 2948 2949 2950 2951 2951 2952 2953 2955
2947 2946 2945 2944 2943 2942 2942 2941 2941 2940 2939 2939 2938 2938 2938 2937 2937 2936 2936 2935 2935 2933 2932 2932 2932 2932 2931 2931 2931 2930 2930 2930 2930 2930 2930 2930 2930 2931 2931 2931 2932 2933 2934 2935 2935 2935 2936 2936 2937 2938 2938 2938 2938 2938 2939 2939 2940 2940 2941 2942 2943 2944 2945 2946 2946 2947 2948 2949 2950
2944 2943 2942 2941 2940 2939 2938 2937 2936 2936 2936 2935 2934 2934 2933 2933 2932 2932 2932 2931 2931 2930 2929 2928 2928 2928 2927 2927 2926 2926 2926 2926 2926 2926 2926 2926 2926 2926 2926 2926 2927 2928 2929 2930 2930 2931 2931 2931 2932 2933 2933 2934 2934 2934 2934 2935 2935 2936 2936 2937 2939 2940 2940 2941 2942 2943 2944 2945 2946
2941 2939 2938 2937 2936 2935 2934 2933 2932 2932 2931 2931 2930 2929 2929 2929 2928 2928 2927 2927 2926 2926 2925 2924 2924 2924 2924 2923 2922 2922 2921 2921 2922 2922 2922 2921 2921 2921 2922 2922 2922 2923 2924 2925 2926 2926 2926 2926 2927 2928 2928 2929 2929 2930 2930 2931 2931 2931 2932 2933 2934 2935 2936 2937 2938 2939 2940 2941 2942